rusio

最新の値

Datetime Temperature Humidity Pressure
06:35 20.73 53.06 1014.77
06:25 20.91 53.87 1014.68
06:15 21.1 53.97 1014.56
06:05 21.31 53.85 1014.5
05:55 21.53 53.62 1014.35
05:45 21.8 53.34 1014.34
05:35 22.13 52.78 1014.22
05:25 22.27 53.01 1014.06
05:14 22.59 52.12 1013.81
05:04 22.65 51.63 1013.79
04:54 22.64 51.66 1013.66
04:44 22.6 51.85 1013.65
04:34 22.57 51.94 1013.54
04:24 22.57 51.81 1013.44
04:14 22.54 52.09 1013.44
04:04 22.51 52.23 1013.37
03:54 22.49 52.24 1013.23
03:44 22.42 52.39 1013.21
03:34 22.38 52.59 1013.09
03:24 22.32 52.77 1013.01
03:14 22.2 53.13 1012.96
03:04 22.15 52.99 1012.88
02:54 22.13 53 1012.82
02:44 22.08 53.23 1012.71
02:34 22.04 53.26 1012.63
02:24 22 53.34 1012.54
02:14 21.93 53.41 1012.57
02:04 21.88 53.41 1012.58
01:54 21.84 53.58 1012.68
01:44 21.73 53.96 1012.73
01:34 21.67 53.95 1012.66
01:24 21.6 54.13 1012.62
01:14 21.53 54.13 1012.51
01:04 21.48 54.29 1012.6
00:54 21.39 54.34 1012.41
00:44 21.31 54.64 1012.35
00:34 21.2 54.87 1012.17
00:24 21.08 55.11 1011.97
00:14 20.99 55.23 1011.91
00:04 20.81 55.53 1011.81
23:54 20.71 55.74 1011.93
23:44 20.56 56.01 1012.08
23:34 20.39 56.17 1011.88
23:24 20.24 56.27 1012.04
23:14 20.09 56.9 1012.04
23:04 19.98 57.02 1011.99
22:54 19.96 56.16 1012.07
22:44 19.92 55.28 1012.15
22:34 19.84 56.01 1012.53
22:24 19.69 56.82 1012.32
22:14 19.74 56.44 1012.46
22:04 19.7 56.69 1012.61
21:54 19.67 56.83 1012.48
21:44 19.62 56.84 1012.46
21:34 19.59 56.96 1012.56
21:24 19.52 57.06 1012.47
21:14 19.45 57 1012.41
21:04 19.42 56.86 1012.2
20:54 19.35 57.71 1012.58
20:44 19.26 57.76 1012.1
20:34 19.16 56.36 1012.05
20:24 19.08 55.88 1012.06
20:14 19.03 55.92 1012.08
20:04 18.95 55.78 1012.13
19:54 18.93 55.81 1012.17
19:44 18.86 55.66 1012.3
19:34 18.84 55.84 1012.26
19:24 18.81 56.03 1012.24
19:14 18.78 56.28 1012
19:04 18.73 56.6 1012.21
18:54 18.7 56.98 1012.35
18:44 18.64 57.18 1012.54
18:34 18.6 57.2 1012.36
18:24 18.55 57.61 1012.12
18:14 18.48 57.87 1012.03
18:04 18.4 57.45 1012.05
17:54 18.35 57.29 1012.21
17:44 18.31 57.16 1011.91
17:34 18.26 56.97 1011.85
17:24 18.2 56.83 1011.59
17:14 18.16 56.48 1011.52
17:04 18.1 56.28 1011.9
16:54 18.01 56.18 1011.77
16:44 17.96 56.34 1012.09
16:34 17.96 56.35 1012.04
16:24 18.11 56.15 1012.32
16:14 18.18 56.31 1012.01
16:04 18.2 56.28 1011.85
15:54 18.17 56.24 1011.86
15:44 18.11 56.23 1011.65
15:34 18.1 56.28 1011.83
15:24 18.13 56.67 1012.09
15:14 18.13 56.42 1012.2
15:04 18.09 55.78 1011.97
14:54 18 56.19 1012.35
14:44 17.92 56.6 1012.31
14:34 17.94 56.44 1012.25
14:24 18.02 56.54 1012.14
14:14 18.02 56.62 1012.17
14:04 18.07 56.42 1011.85
13:54 18.12 56.26 1012.13
13:44 18.09 56.18 1012.31
13:34 18.21 55.78 1012.25
13:24 18.23 55.92 1012.28
13:14 18.24 56.14 1012.41
13:04 18.28 56.02 1012.44
12:54 18.38 55.79 1012.8
12:44 18.43 55.83 1012.77
12:34 18.53 55.95 1012.99
12:23 18.59 56.15 1013.09
12:13 18.64 56.47 1012.94
12:03 18.62 57.13 1013.16
11:53 18.74 57.27 1013.29
11:43 18.78 57.65 1013.78
11:33 18.87 57.69 1013.59
11:23 19.01 57.3 1013.66
11:13 18.95 57.57 1014.07
11:03 18.93 57.28 1014.38
10:53 19 56.51 1014.76
10:43 19.03 56.41 1014.87
10:33 19.04 56.4 1014.82
10:23 19.24 56.32 1014.87
10:13 19.22 56 1014.92
10:03 19.23 55.63 1014.91
09:53 19.19 55.89 1014.9
09:43 19.12 55.86 1014.96
09:33 19.13 56.03 1015.11
09:23 19.23 55.55 1015.11
09:13 19.22 55.86 1014.99
09:03 19.32 55.64 1015.19
08:53 19.31 55.63 1015.36
08:43 19.22 56.03 1015.42
08:33 19.51 55.6 1015.37
08:23 19.65 55.14 1015.4
08:13 19.75 54.98 1015.66
08:03 19.72 54.36 1015.65
07:53 19.81 54.02 1015.59
07:43 19.81 53.62 1015.41
07:33 19.91 53.53 1015.32
07:23 20.05 53.7 1015.51
07:13 20.18 53.84 1015.55
07:03 20.01 53.28 1015.26
06:53 18.93 53.71 1015.15